• In Germany
  • List of Countries
  • For 7 days
  • Water Temperature
  • Satellite Maps
  • Weather Map
  • Weather Widgets
  • user-avatar
    Login

    Hourly Weather Campo Grande

    Today, 14 November, Wednesday

    Time Temperature Precipitation Wind Pressure Humidity
    00:00 +27°C° 0 mm 2 mps 708 mmHg 68%
    01:00 +27°C° 0 mm 2 mps 707 mmHg 70%
    02:00 +27°C° 0 mm 2 mps 707 mmHg 72%
    03:00 +26°C° 0 mm 2 mps 707 mmHg 73%
    04:00 +26°C° 0 mm 2 mps 707 mmHg 75%
    05:00 +26°C° 0 mm 2 mps 707 mmHg 76%
    06:00 +28°C° 0.3 mm 3 mps 708 mmHg 71%
    07:00 +29°C° 0.3 mm 3 mps 709 mmHg 66%
    08:00 +32°C° 0.3 mm 4 mps 709 mmHg 61%
    09:00 +33°C° 0.9 mm 4 mps 709 mmHg 59%
    10:00 +34°C° 0.9 mm 4 mps 709 mmHg 57%
    11:00 +34°C° 0.9 mm 4 mps 709 mmHg 54%
    12:00 +34°C° 0.6 mm 4 mps 708 mmHg 54%
    13:00 +34°C° 0.6 mm 4 mps 708 mmHg 55%
    14:00 +34°C° 0.6 mm 4 mps 707 mmHg 55%
    15:00 +34°C° 0.1 mm 3 mps 707 mmHg 57%
    16:00 +32°C° 0.1 mm 2 mps 707 mmHg 59%
    17:00 +31°C° 0.1 mm 1 mps 707 mmHg 61%
    18:00 +30°C° 0.9 mm 1 mps 707 mmHg 67%
    19:00 +29°C° 0.9 mm 1 mps 707 mmHg 72%
    20:00 +27°C° 0.9 mm 1 mps 707 mmHg 78%
    21:00 +27°C° 0.7 mm 1 mps 708 mmHg 81%
    22:00 +26°C° 0.7 mm 1 mps 708 mmHg 83%
    23:00 +26°C° 0.7 mm 1 mps 708 mmHg 86%

    Tomorrow, 15 November, Thursday

    Time Temperature Precipitation Wind Pressure Humidity
    00:00 +26°C° 0.7 mm 1 mps 708 mmHg 87%
    01:00 +25°C° 0.7 mm 1 mps 707 mmHg 88%
    02:00 +25°C° 0.7 mm 1 mps 707 mmHg 89%
    03:00 +25°C° 0 mm 1 mps 707 mmHg 89%
    04:00 +25°C° 0 mm 1 mps 707 mmHg 89%
    05:00 +25°C° 0 mm 1 mps 707 mmHg 89%
    06:00 +26°C° 1.7 mm 1 mps 707 mmHg 84%
    07:00 +27°C° 1.7 mm 1 mps 708 mmHg 80%
    08:00 +29°C° 1.7 mm 2 mps 708 mmHg 75%
    09:00 +30°C° 1.8 mm 2 mps 708 mmHg 71%
    10:00 +30°C° 1.8 mm 1 mps 709 mmHg 66%
    11:00 +31°C° 1.8 mm 1 mps 709 mmHg 62%
    12:00 +31°C° 0.3 mm 1 mps 708 mmHg 61%
    13:00 +31°C° 0.3 mm 2 mps 708 mmHg 60%
    14:00 +32°C° 0.3 mm 2 mps 707 mmHg 58%
    15:00 +31°C° 0 mm 2 mps 707 mmHg 62%
    16:00 +30°C° 0 mm 2 mps 707 mmHg 65%
    17:00 +30°C° 0 mm 1 mps 707 mmHg 69%
    18:00 +29°C° 0 mm 1 mps 707 mmHg 71%
    19:00 +28°C° 0 mm 1 mps 707 mmHg 73%
    20:00 +27°C° 0 mm 1 mps 708 mmHg 75%
    21:00 +27°C° 0.1 mm 1 mps 708 mmHg 76%
    22:00 +24°C° 0.1 mm 0 mps 708 mmHg 77%
    23:00 +24°C° 0.1 mm 0 mps 708 mmHg 78%

    Day after tomorrow, 16 November, Friday

    Time Temperature Precipitation Wind Pressure Humidity
    00:00 +24°C° 0.1 mm 0 mps 708 mmHg 79%
    01:00 +24°C° 0.1 mm 0 mps 707 mmHg 79%
    02:00 +24°C° 0.1 mm 0 mps 707 mmHg 80%
    03:00 +23°C° 0 mm 0 mps 707 mmHg 80%
    04:00 +23°C° 0 mm 0 mps 707 mmHg 81%
    05:00 +23°C° 0 mm 0 mps 707 mmHg 81%
    06:00 +27°C° 0 mm 1 mps 708 mmHg 76%
    07:00 +29°C° 0 mm 1 mps 709 mmHg 70%
    08:00 +30°C° 0 mm 2 mps 710 mmHg 65%
    09:00 +31°C° 2.2 mm 2 mps 710 mmHg 63%
    10:00 +32°C° 2.2 mm 2 mps 710 mmHg 62%
    11:00 +32°C° 2.2 mm 2 mps 710 mmHg 60%
    12:00 +32°C° 1.6 mm 2 mps 709 mmHg 61%
    13:00 +32°C° 1.6 mm 2 mps 709 mmHg 61%
    14:00 +32°C° 1.6 mm 1 mps 708 mmHg 61%
    15:00 +31°C° 0 mm 1 mps 708 mmHg 63%
    16:00 +31°C° 0 mm 2 mps 708 mmHg 65%
    17:00 +30°C° 0 mm 2 mps 708 mmHg 67%
    18:00 +29°C° 0.1 mm 2 mps 708 mmHg 71%
    19:00 +28°C° 0.1 mm 2 mps 708 mmHg 75%
    20:00 +27°C° 0.1 mm 2 mps 708 mmHg 79%
    21:00 +26°C° 0.1 mm 2 mps 708 mmHg 80%
    22:00 +26°C° 0.1 mm 2 mps 708 mmHg 81%
    23:00 +26°C° 0.1 mm 2 mps 708 mmHg 82%

    17 November, Saturday

    Time Temperature Precipitation Wind Pressure Humidity
    00:00 +25°C° 0 mm 2 mps 708 mmHg 83%
    01:00 +25°C° 0 mm 2 mps 708 mmHg 83%
    02:00 +25°C° 0 mm 2 mps 707 mmHg 84%
    03:00 +25°C° 0 mm 2 mps 707 mmHg 85%
    04:00 +25°C° 0 mm 2 mps 707 mmHg 86%
    05:00 +25°C° 0 mm 2 mps 708 mmHg 87%
    06:00 +26°C° 0 mm 3 mps 708 mmHg 81%
    07:00 +28°C° 0 mm 4 mps 709 mmHg 76%
    08:00 +29°C° 0 mm 4 mps 709 mmHg 70%
    09:00 +30°C° 1 mm 4 mps 709 mmHg 66%
    10:00 +33°C° 1 mm 4 mps 709 mmHg 62%
    11:00 +34°C° 1 mm 4 mps 709 mmHg 58%
    12:00 +34°C° 0.8 mm 4 mps 708 mmHg 57%
    13:00 +34°C° 0.8 mm 3 mps 708 mmHg 56%
    14:00 +34°C° 0.8 mm 3 mps 707 mmHg 55%
    15:00 +33°C° 0.4 mm 3 mps 707 mmHg 59%
    16:00 +31°C° 0.4 mm 3 mps 706 mmHg 63%
    17:00 +30°C° 0.4 mm 2 mps 706 mmHg 68%
    18:00 +29°C° 0.3 mm 3 mps 707 mmHg 71%
    19:00 +28°C° 0.3 mm 3 mps 707 mmHg 74%
    20:00 +27°C° 0.3 mm 3 mps 707 mmHg 78%
    21:00 +27°C° 0 mm 3 mps 707 mmHg 79%
    22:00 +26°C° 0 mm 3 mps 707 mmHg 81%
    23:00 +26°C° 0 mm 3 mps 707 mmHg 83%

    18 November, Sunday

    Time Temperature Precipitation Wind Pressure Humidity
    00:00 +26°C° 0 mm 3 mps 706 mmHg 84%
    01:00 +25°C° 0 mm 3 mps 706 mmHg 85%
    02:00 +25°C° 0 mm 3 mps 705 mmHg 87%
    03:00 +25°C° 0 mm 2 mps 705 mmHg 87%
    04:00 +25°C° 0 mm 2 mps 706 mmHg 87%
    05:00 +24°C° 0 mm 2 mps 706 mmHg 87%
    06:00 +26°C° 0.4 mm 3 mps 707 mmHg 81%
    07:00 +28°C° 0.4 mm 4 mps 708 mmHg 74%
    08:00 +30°C° 0.4 mm 4 mps 708 mmHg 68%
    09:00 +30°C° 2.7 mm 5 mps 708 mmHg 68%
    10:00 +32°C° 2.7 mm 5 mps 708 mmHg 68%
    11:00 +32°C° 2.7 mm 5 mps 707 mmHg 67%
    12:00 +32°C° 1.4 mm 5 mps 707 mmHg 67%
    13:00 +32°C° 1.4 mm 5 mps 706 mmHg 67%
    14:00 +32°C° 1.4 mm 5 mps 706 mmHg 67%
    15:00 +30°C° 0.2 mm 4 mps 706 mmHg 69%
    16:00 +30°C° 0.2 mm 3 mps 706 mmHg 72%
    17:00 +29°C° 0.2 mm 3 mps 706 mmHg 75%
    18:00 +28°C° 0.9 mm 2 mps 706 mmHg 78%
    19:00 +27°C° 0.9 mm 2 mps 707 mmHg 82%
    20:00 +26°C° 0.9 mm 2 mps 707 mmHg 85%
    21:00 +26°C° 1.8 mm 2 mps 707 mmHg 88%
    22:00 +25°C° 1.8 mm 1 mps 707 mmHg 91%
    23:00 +25°C° 1.8 mm 1 mps 708 mmHg 93%

    19 November, Monday

    Time Temperature Precipitation Wind Pressure Humidity
    00:00 +25°C° 1.4 mm 1 mps 707 mmHg 94%
    01:00 +24°C° 1.4 mm 1 mps 707 mmHg 95%
    02:00 +24°C° 1.4 mm 2 mps 707 mmHg 95%
    03:00 +24°C° 4.2 mm 2 mps 707 mmHg 95%
    04:00 +24°C° 4.2 mm 2 mps 707 mmHg 95%
    05:00 +23°C° 4.2 mm 2 mps 708 mmHg 95%
    06:00 +24°C° 1.9 mm 2 mps 708 mmHg 94%
    07:00 +24°C° 1.9 mm 2 mps 709 mmHg 94%
    08:00 +24°C° 1.9 mm 2 mps 709 mmHg 93%
    09:00 +24°C° 0.5 mm 2 mps 709 mmHg 92%
    10:00 +24°C° 0.5 mm 2 mps 709 mmHg 92%
    11:00 +25°C° 0.5 mm 2 mps 709 mmHg 91%
    12:00 +26°C° 0.3 mm 2 mps 708 mmHg 87%
    13:00 +27°C° 0.3 mm 2 mps 708 mmHg 82%
    14:00 +28°C° 0.3 mm 2 mps 708 mmHg 78%
    15:00 +27°C° 0.7 mm 2 mps 707 mmHg 80%
    16:00 +27°C° 0.7 mm 1 mps 707 mmHg 81%
    17:00 +27°C° 0.7 mm 1 mps 707 mmHg 82%
    18:00 +26°C° 0.7 mm 1 mps 707 mmHg 84%
    19:00 +26°C° 0.7 mm 1 mps 708 mmHg 86%
    20:00 +25°C° 0.7 mm 1 mps 708 mmHg 89%
    21:00 +25°C° 0.9 mm 1 mps 708 mmHg 89%
    22:00 +24°C° 0.9 mm 2 mps 708 mmHg 90%
    23:00 +24°C° 0.9 mm 2 mps 708 mmHg 91%
    Show more